TimeEDT,TemperatureF,Dew PointF,Humidity,Sea Level PressureIn,VisibilityMPH,Wind Direction,Wind SpeedMPH,Gust SpeedMPH,PrecipitationIn,Events,Conditions,WindDirDegrees,DateUTC
12:53 AM,35.1,33.1,92,30.22,10.0,NNW,4.6,-,N/A,,Clear,340,2011-11-01 04:53:00
1:53 AM,33.1,32.0,96,30.23,10.0,Calm,Calm,-,N/A,,Clear,0,2011-11-01 05:53:00
2:53 AM,37.0,32.0,82,30.22,10.0,North,3.5,-,N/A,,Clear,360,2011-11-01 06:53:00
3:53 AM,32.0,30.9,96,30.23,10.0,NNW,3.5,-,N/A,,Clear,340,2011-11-01 07:53:00
4:53 AM,32.0,30.9,96,30.23,10.0,Calm,Calm,-,N/A,,Clear,0,2011-11-01 08:53:00
5:53 AM,33.1,30.9,92,30.24,10.0,SW,4.6,-,N/A,,Clear,220,2011-11-01 09:53:00
6:53 AM,30.9,30.0,96,30.26,10.0,Calm,Calm,-,N/A,,Clear,0,2011-11-01 10:53:00
7:53 AM,30.9,30.0,96,30.28,9.0,South,3.5,-,N/A,,Clear,180,2011-11-01 11:53:00
8:53 AM,37.0,33.1,86,30.30,10.0,Calm,Calm,-,N/A,,Clear,0,2011-11-01 12:53:00
9:53 AM,42.1,37.0,82,30.33,10.0,Calm,Calm,-,N/A,,Clear,0,2011-11-01 13:53:00
10:53 AM,51.1,37.0,59,30.33,10.0,NE,9.2,-,N/A,,Clear,50,2011-11-01 14:53:00
11:53 AM,54.0,35.1,49,30.33,10.0,NNE,9.2,-,N/A,,Clear,30,2011-11-01 15:53:00
12:53 PM,55.9,34.0,44,30.31,10.0,NNE,8.1,-,N/A,,Clear,30,2011-11-01 16:53:00
1:53 PM,57.9,34.0,41,30.30,10.0,North,8.1,-,N/A,,Clear,360,2011-11-01 17:53:00
2:53 PM,59.0,34.0,39,30.29,10.0,NE,5.8,-,N/A,,Clear,50,2011-11-01 18:53:00
3:53 PM,60.1,34.0,38,30.29,10.0,NNW,4.6,-,N/A,,Clear,330,2011-11-01 19:53:00
4:53 PM,59.0,33.1,38,30.29,10.0,NE,5.8,-,N/A,,Clear,40,2011-11-01 20:53:00
5:53 PM,55.0,36.0,49,30.30,10.0,ENE,4.6,-,N/A,,Clear,60,2011-11-01 21:53:00
6:53 PM,46.9,35.1,63,30.32,10.0,East,3.5,-,N/A,,Clear,90,2011-11-01 22:53:00
7:53 PM,42.1,36.0,79,30.32,10.0,Calm,Calm,-,N/A,,Clear,0,2011-11-01 23:53:00
8:53 PM,39.0,34.0,82,30.34,10.0,Calm,Calm,-,N/A,,Clear,0,2011-11-02 00:53:00
9:53 PM,39.0,35.1,86,30.35,10.0,Calm,Calm,-,N/A,,Clear,0,2011-11-02 01:53:00
10:53 PM,35.1,34.0,96,30.36,10.0,Calm,Calm,-,N/A,,Clear,0,2011-11-02 02:53:00
11:53 PM,35.1,34.0,96,30.36,10.0,Calm,Calm,-,N/A,,Clear,0,2011-11-02 03:53:00